Weather History for Chignik, AK

Change the Weather History Date:

Saturday, February 22, 2014

  Actual Average Record
Temperature  
Mean Temperature 40 °F -  
Max Temperature 41 °F 34 °F 41 °F (2014)
Min Temperature 39 °F 27 °F 17 °F (2008)
Degree Days  
Heating Degree Days 25    
Moisture  
Dew Point 39 °F    
Average Humidity 97    
Maximum Humidity 100    
Minimum Humidity 93    
Precipitation  
Precipitation 6.42 in - - ()
Sea Level Pressure  
Sea Level Pressure 29.51 in    
Wind  
Wind Speed 17 mph (ESE)    
Max Wind Speed 22 mph    
Max Gust Speed 39 mph    
Visibility 5 miles    
Events      
Averages and records for this station are not official NWS values.
T = Trace of Precipitation, MM = Missing Value Source: NWS Daily Summary

Daily Weather History Graph

Daily Weather History Graph

Search for Another Location

Airport:

Trip Planner

Search our weather history database for the weather conditions in past years. The results will help you decide how hot, cold, wet, or windy it might be!

Date:

Astronomy

Feb. 22, 2014 Rise Set
Actual Time 8:42 AM AKST 6:52 PM AKST
Civil Twilight 8:03 AM AKST 7:30 PM AKST
Nautical Twilight 7:20 AM AKST 8:14 PM AKST
Astronomical Twilight 6:37 AM AKST 8:57 PM AKST
Moon 3:19 AM AKST (2/22) 11:41 AM AKST (2/22)
Length of Visible Light 11h 26m
Length of Day
10h 10m
Waning Gibbous, 48% of the Moon is Illuminated
Feb 22
Waning Gibbous
Feb 28
New
Mar 8
First Quarter
Mar 16
Full
Mar 23
Last Quarter

Hourly Weather History & Observations

Time (AKST) Temp. Windchill Dew Point Humidity Pressure Visibility Wind Dir Wind Speed Gust Speed Precip Events Conditions
12:16 AM 39.2 °F 29.0 °F 37.4 °F 93% 29.60 in 3.0 mi SSE 21.9 mph 33.4 mph 0.04 in   Overcast
12:36 AM 39.2 °F 29.0 °F 39.2 °F 100% 29.60 in 3.0 mi SSE 21.9 mph 34.5 mph 0.08 in   Overcast
12:56 AM 41.0 °F 31.6 °F 39.2 °F 93% 29.59 in 2.5 mi SSE 20.7 mph 39.1 mph 0.12 in   Overcast
1:16 AM 39.2 °F 30.8 °F 39.2 °F 100% 29.59 in 3.0 mi SE 15.0 mph 33.4 mph 0.04 in   Overcast
1:36 AM 39.2 °F 30.2 °F 39.2 °F 100% 29.60 in 3.0 mi SE 17.3 mph 39.1 mph 0.10 in   Overcast
1:56 AM 39.2 °F 29.6 °F 39.2 °F 100% 29.60 in 5.0 mi SSE 19.6 mph 38.0 mph 0.19 in   Overcast
2:16 AM 39.2 °F 30.8 °F 39.2 °F 100% 29.60 in 5.0 mi SE 15.0 mph 31.1 mph 0.10 in   Overcast
2:36 AM 39.2 °F 31.6 °F 39.2 °F 100% 29.60 in 5.0 mi SE 12.7 mph 29.9 mph 0.19 in   Overcast
2:56 AM 41.0 °F 32.5 °F 39.2 °F 93% 29.60 in 5.0 mi SSE 17.3 mph 32.2 mph 0.31 in   Overcast
3:16 AM 41.0 °F 31.6 °F 39.2 °F 93% 29.60 in 6.0 mi SE 20.7 mph 28.8 mph 0.09 in   Overcast
3:36 AM 41.0 °F 34.3 °F 39.2 °F 93% 29.60 in 7.0 mi SE 11.5 mph 26.5 mph 0.16 in   Overcast
3:56 AM 41.0 °F 33.1 °F 39.2 °F 93% 29.60 in 7.0 mi SE 15.0 mph 23.0 mph 0.24 in   Overcast
4:16 AM 41.0 °F 33.1 °F 39.2 °F 93% 29.59 in 7.0 mi ESE 15.0 mph 24.2 mph 0.07 in   Overcast
4:36 AM 41.0 °F 33.1 °F 39.2 °F 93% 29.58 in 6.0 mi ESE 15.0 mph 25.3 mph 0.13 in   Overcast
4:56 AM 41.0 °F 33.1 °F 39.2 °F 93% 29.58 in 6.0 mi SE 15.0 mph 27.6 mph 0.19 in   Overcast
5:16 AM 41.0 °F 33.9 °F 39.2 °F 93% 29.58 in 6.0 mi ESE 12.7 mph 25.3 mph 0.06 in   Overcast
5:36 AM 41.0 °F 34.3 °F 39.2 °F 93% 29.58 in 7.0 mi ESE 11.5 mph 21.9 mph 0.11 in   Overcast
5:56 AM 41.0 °F 32.8 °F 39.2 °F 93% 29.58 in 6.0 mi ESE 16.1 mph 26.5 mph 0.16 in   Overcast
6:16 AM 41.0 °F 33.1 °F 39.2 °F 93% 29.58 in 7.0 mi SE 15.0 mph 25.3 mph 0.05 in   Overcast
6:36 AM 41.0 °F 32.8 °F 39.2 °F 93% 29.58 in 7.0 mi ESE 16.1 mph 24.2 mph 0.12 in   Overcast
6:56 AM 41.0 °F 32.2 °F 39.2 °F 93% 29.57 in 5.0 mi East 18.4 mph 29.9 mph 0.20 in   Overcast
7:16 AM 41.0 °F 33.1 °F 39.2 °F 93% 29.58 in 6.0 mi ESE 15.0 mph 24.2 mph 0.08 in   Overcast
7:36 AM 41.0 °F 31.9 °F 39.2 °F 93% 29.58 in 5.0 mi ESE 19.6 mph 25.3 mph 0.15 in   Overcast
7:56 AM 41.0 °F 32.8 °F 39.2 °F 93% 29.58 in 5.0 mi East 16.1 mph 29.9 mph 0.24 in   Overcast
8:16 AM 41.0 °F 33.1 °F 39.2 °F 93% 29.58 in 5.0 mi East 15.0 mph 26.5 mph 0.10 in   Overcast
8:36 AM 41.0 °F 32.2 °F 39.2 °F 93% 29.58 in 6.0 mi ESE 18.4 mph 27.6 mph 0.21 in   Overcast
8:56 AM 41.0 °F 31.6 °F 39.2 °F 93% 29.58 in 5.0 mi ESE 20.7 mph 32.2 mph 0.31 in   Overcast
9:16 AM 41.0 °F 32.8 °F 39.2 °F 93% 29.58 in 5.0 mi ESE 16.1 mph 31.1 mph 0.11 in   Overcast
9:36 AM 39.2 °F 30.5 °F 39.2 °F 100% 29.58 in 5.0 mi ESE 16.1 mph 21.9 mph 0.20 in   Overcast
9:56 AM 39.2 °F 30.8 °F 39.2 °F 100% 29.58 in 4.0 mi East 15.0 mph 25.3 mph 0.29 in   Overcast
10:16 AM 39.2 °F 31.6 °F 39.2 °F 100% 29.57 in 3.0 mi East 12.7 mph 28.8 mph 0.11 in   Overcast
10:36 AM 39.2 °F 31.2 °F 39.2 °F 100% 29.57 in 4.0 mi East 13.8 mph 29.9 mph 0.20 in   Overcast
10:56 AM 39.2 °F 29.8 °F 39.2 °F 100% 29.57 in 3.0 mi East 18.4 mph 29.9 mph 0.31 in   Overcast
11:16 AM 39.2 °F 30.8 °F 39.2 °F 100% 29.56 in 3.0 mi ENE 15.0 mph 29.9 mph 0.09 in   Overcast
11:36 AM 39.2 °F 30.5 °F 39.2 °F 100% 29.56 in 4.0 mi East 16.1 mph 31.1 mph 0.19 in   Overcast
11:56 AM 39.2 °F 30.8 °F 39.2 °F 100% 29.56 in 3.0 mi ENE 15.0 mph 26.5 mph 0.29 in   Overcast
12:16 PM 39.2 °F 30.8 °F 39.2 °F 100% 29.55 in 3.0 mi East 15.0 mph 20.7 mph 0.10 in   Overcast
12:36 PM 39.2 °F 32.5 °F 39.2 °F 100% 29.54 in 5.0 mi East 10.4 mph 27.6 mph 0.20 in   Overcast
12:56 PM 39.2 °F 30.8 °F 39.2 °F 100% 29.53 in 4.0 mi East 15.0 mph 27.6 mph 0.28 in   Overcast
1:16 PM 39.2 °F 31.2 °F 39.2 °F 100% 29.52 in 4.0 mi ENE 13.8 mph 28.8 mph 0.11 in   Overcast
1:36 PM 39.2 °F 30.8 °F 39.2 °F 100% 29.51 in 4.0 mi East 15.0 mph 25.3 mph 0.21 in   Overcast
1:56 PM 39.2 °F 33.6 °F 39.2 °F 100% 29.50 in 5.0 mi East 8.1 mph 21.9 mph 0.31 in   Overcast
2:16 PM 39.2 °F 30.2 °F 39.2 °F 100% 29.49 in 5.0 mi East 17.3 mph 26.5 mph 0.12 in   Overcast
2:36 PM 39.2 °F 29.3 °F 37.4 °F 93% 29.48 in 3.0 mi East 20.7 mph 33.4 mph 0.26 in   Overcast
2:56 PM 39.2 °F 31.2 °F 39.2 °F 100% 29.47 in 3.0 mi East 13.8 mph 21.9 mph 0.40 in   Overcast
3:16 PM 39.2 °F 30.8 °F 39.2 °F 100% 29.46 in 3.0 mi East 15.0 mph 23.0 mph 0.12 in   Overcast
3:36 PM 39.2 °F 31.2 °F 39.2 °F 100% 29.45 in 3.0 mi East 13.8 mph 23.0 mph 0.23 in   Overcast
3:56 PM 39.2 °F 30.8 °F 39.2 °F 100% 29.45 in 4.0 mi East 15.0 mph 25.3 mph 0.35 in   Overcast
4:16 PM 39.2 °F 31.6 °F 39.2 °F 100% 29.44 in 5.0 mi East 12.7 mph 25.3 mph 0.13 in   Overcast
4:36 PM 39.2 °F 31.6 °F 39.2 °F 100% 29.42 in 4.0 mi East 12.7 mph 20.7 mph 0.24 in   Overcast
4:56 PM 39.2 °F 31.6 °F 39.2 °F 100% 29.42 in 5.0 mi East 12.7 mph 25.3 mph 0.32 in   Overcast
5:16 PM 39.2 °F 30.8 °F 37.4 °F 93% 29.42 in 4.0 mi East 15.0 mph 36.8 mph 0.10 in   Overcast
5:36 PM 39.2 °F 30.8 °F 39.2 °F 100% 29.41 in 4.0 mi East 15.0 mph 29.9 mph 0.24 in   Overcast
5:56 PM 39.2 °F 31.2 °F 39.2 °F 100% 29.40 in 4.0 mi East 13.8 mph 20.7 mph 0.35 in   Overcast
6:16 PM 39.2 °F 33.0 °F 39.2 °F 100% 29.39 in 5.0 mi ENE 9.2 mph 26.5 mph 0.10 in   Overcast
6:36 PM 41.0 °F 33.9 °F 39.2 °F 93% 29.39 in 3.0 mi ENE 12.7 mph 24.2 mph 0.21 in   Overcast
6:56 PM 41.0 °F 32.5 °F 39.2 °F 93% 29.39 in 5.0 mi East 17.3 mph 26.5 mph 0.32 in   Overcast
7:16 PM 41.0 °F 32.5 °F 39.2 °F 93% 29.39 in 5.0 mi ESE 17.3 mph 33.4 mph 0.11 in   Overcast
7:36 PM 41.0 °F 33.9 °F 39.2 °F 93% 29.39 in 5.0 mi East 12.7 mph 31.1 mph 0.22 in   Overcast
7:56 PM 41.0 °F 31.6 °F 39.2 °F 93% 29.39 in 4.0 mi East 20.7 mph 38.0 mph 0.34 in   Overcast
8:16 PM 41.0 °F 34.3 °F 39.2 °F 93% 29.39 in 6.0 mi East 11.5 mph 33.4 mph 0.12 in   Overcast
8:36 PM 39.2 °F 30.8 °F 39.2 °F 100% 29.38 in 7.0 mi East 15.0 mph 33.4 mph 0.18 in   Overcast
8:56 PM 39.2 °F 30.8 °F 39.2 °F 100% 29.38 in 7.0 mi East 15.0 mph 25.3 mph 0.22 in   Overcast
9:16 PM 39.2 °F 29.6 °F 39.2 °F 100% 29.38 in 8.0 mi East 19.6 mph 31.1 mph 0.06 in   Overcast
9:36 PM 39.2 °F 30.5 °F 39.2 °F 100% 29.39 in 9.0 mi East 16.1 mph 26.5 mph 0.13 in   Overcast
9:56 PM 39.2 °F 29.8 °F 37.4 °F 93% 29.39 in 7.0 mi East 18.4 mph 28.8 mph 0.20 in   Overcast
10:16 PM 39.2 °F 31.2 °F 39.2 °F 100% 29.39 in 8.0 mi East 13.8 mph 34.5 mph 0.08 in   Overcast
10:36 PM 39.2 °F 29.8 °F 39.2 °F 100% 29.39 in 9.0 mi East 18.4 mph 26.5 mph 0.18 in   Overcast
10:56 PM 39.2 °F 30.8 °F 37.4 °F 93% 29.39 in 8.0 mi East 15.0 mph 27.6 mph 0.25 in   Overcast
11:16 PM 39.2 °F 30.2 °F 37.4 °F 93% 29.39 in 9.0 mi East 17.3 mph 32.2 mph 0.07 in   Overcast
11:36 PM 39.2 °F 30.5 °F 37.4 °F 93% 29.39 in 8.0 mi East 16.1 mph 38.0 mph 0.15 in   Overcast
11:56 PM 39.2 °F 29.6 °F 37.4 °F 93% 29.38 in 8.0 mi ESE 19.6 mph 32.2 mph 0.23 in   Overcast